Ephrata, WA
on Saturday, January 26, 2013

Saturday
Previous Day Next Day
Daily Summary
 ActualAverageRecord
Temperature
Mean Temperature °F 30°F  
Max Temperature 32°F 37°F 56°F (2003)
Min Temperature 29°F 24°F -19°F (1957)
Degree Days
Heating Degree Days 34 35  
Month to date heating degree days 1017 952  
Since 1 July heating degree days 3272 3538  
Cooling Degree Days 0 0  
Month to date cooling degree days 0 0  
Year to date cooling degree days 0 0  
Moisture
Dew Point 28°F   
Average Humidity 93    
Maximum Humidity 100    
Minimum Humidity 85    
Precipitation
Precipitation T in 0.03 in 0.37 in (1969)
Month to date precipitation 0.18 0.79  
Year to date precipitation 0.18 0.79  
Wind
Wind Speed 5 mph   
Max Wind Speed 28 mph   
Max Gust Speed 32 mph   
Visibility 8 miles   
Events Snow   

Key: T is trace of precipitation, MM is missing value
Source: NWS Daily Summary
Time(PST)TemperatureDew PointHumidity Pressure Visibility Wind DirectionWind SpeedGust SpeedPrecipitationEvents Conditions
12:37 AM 30.2°F 26.6°F 86% 29.95 in 10.0 miles West 8.1 mph - N/A   Overcast
12:53 AM 30.9°F 28.0°F 89% 29.98 in 10.0 miles WNW 8.1 mph - N/A   Overcast
1:53 AM 30.9°F 28.0°F 89% 29.97 in 10.0 miles West 4.6 mph - N/A   Overcast
2:53 AM 30.9°F 28.0°F 89% 29.96 in 10.0 miles WNW 8.1 mph - N/A   Overcast
3:53 AM 30.9°F 27.0°F 85% 29.95 in 10.0 miles NW 8.1 mph - N/A   Overcast
4:53 AM 28.9°F 27.0°F 92% 29.96 in 10.0 miles SSW 5.8 mph - N/A   Overcast
5:01 AM 28.4°F 26.6°F 93% 29.92 in 10.0 miles SSW 6.9 mph - N/A   Overcast
5:53 AM 28.9°F 27.0°F 92% 29.96 in 10.0 miles SW 6.9 mph - N/A   Overcast
6:53 AM 28.9°F 27.0°F 92% 29.96 in 8.0 miles SW 5.8 mph - N/A   Overcast
7:53 AM 28.9°F 27.0°F 92% 29.97 in 6.0 miles SW 6.9 mph - N/A   Overcast
8:53 AM 28.9°F 28.0°F 96% 29.97 in 3.0 miles SW 4.6 mph - N/A   Overcast
9:14 AM 28.4°F 28.4°F 100% 29.94 in 2.5 miles SSW 5.8 mph - N/A   Overcast
9:35 AM 30.2°F 28.4°F 93% 29.94 in 1.8 miles SW 5.8 mph - 0.00 in Snow Light Snow
9:53 AM 30.0°F 28.9°F 96% 29.99 in 1.8 miles SW 4.6 mph - 0.00 in Snow Light Snow
10:00 AM 30.2°F 28.4°F 93% 29.94 in 2.0 miles SSW 3.5 mph - 0.00 in Snow Light Snow
10:08 AM 30.2°F 28.4°F 93% 29.94 in 1.5 miles SW 4.6 mph - 0.00 in Snow Light Snow
10:25 AM 30.2°F 28.4°F 93% 29.94 in 2.0 miles Calm Calm - 0.00 in Snow Light Snow
10:35 AM 30.2°F 28.4°F 93% 29.94 in 2.5 miles WSW 3.5 mph - 0.00 in Snow Light Snow
10:45 AM 30.2°F 28.4°F 93% 29.94 in 2.5 miles SSW 3.5 mph - 0.00 in Snow Light Snow
10:53 AM 30.9°F 28.0°F 89% 29.98 in 2.0 miles Calm Calm - 0.00 in Snow Light Snow
11:06 AM 30.2°F 28.4°F 93% 29.94 in 4.0 miles SW 3.5 mph - 0.00 in   Overcast
11:27 AM 30.2°F 28.4°F 93% 29.94 in 9.0 miles Calm Calm - 0.00 in   Overcast
11:53 AM 32.0°F 28.0°F 85% 29.97 in 10.0 miles Calm Calm - 0.00 in   Overcast
12:16 PM 30.2°F 28.4°F 93% 29.93 in 10.0 miles SSE 3.5 mph - N/A   Overcast
12:53 PM 30.9°F 28.0°F 89% 29.96 in 10.0 miles Calm Calm - N/A   Overcast
1:48 PM 32.0°F 26.6°F 80% 29.91 in 10.0 miles Calm Calm - N/A   Overcast
1:53 PM 32.0°F 28.0°F 85% 29.95 in 10.0 miles SSW 26.5 mph 29.9 mph N/A   Overcast
2:02 PM 32.0°F 28.4°F 87% 29.91 in 10.0 miles ESE 3.5 mph 32.2 mph N/A   Overcast
2:53 PM 30.9°F 28.0°F 89% 29.96 in 10.0 miles ESE 4.6 mph - N/A   Overcast
3:53 PM 30.9°F 28.0°F 89% 29.96 in 10.0 miles SE 4.6 mph - N/A   Overcast
4:53 PM 30.9°F 28.0°F 89% 29.96 in 10.0 miles Calm Calm - N/A   Overcast
5:53 PM 30.9°F 28.0°F 89% 29.98 in 10.0 miles Calm Calm - N/A   Overcast
6:53 PM 30.9°F 28.0°F 89% 29.98 in 10.0 miles East 3.5 mph - N/A   Overcast
7:53 PM 30.0°F 28.0°F 92% 29.99 in 10.0 miles Calm Calm - N/A   Overcast
8:53 PM 30.0°F 28.0°F 92% 29.99 in 10.0 miles SSE 3.5 mph - N/A   Overcast
9:53 PM 30.0°F 27.0°F 88% 30.01 in 10.0 miles Calm Calm - N/A   Overcast
10:53 PM 30.0°F 28.0°F 92% 30.01 in 10.0 miles Calm Calm - N/A   Overcast
11:53 PM 30.0°F 27.0°F 88% 30.02 in 10.0 miles South 4.6 mph - N/A   Overcast
Moon Phase
Jan. 26 Jan. 26 Feb. 03 Feb. 10 Feb. 17
Sunrise:07:30 AM (PST) Moon Rise:04:54 PM (PST)1/26
Sunset:04:51 PM (PST) Moon Set:06:48 AM (PST)1/26

Copyright © 2014 The Weather Underground, Inc.